Location: Star Camp Observatory
(34.2910°N, 116.3827°W)
Time: 06:22:08
(UTC-08:00)

Envisat - Pass Details

Date: 18 November 2019
Orbit: 764 x 766 km, 98.1° (Epoch: 14 December)

Event Time Altitude Azimuth Distance (km) Brightness Sun altitude
Rises 05:21:10 0° 34° (NE) 3,232 6.5 -12.6°
Reaches altitude 10° 05:24:29 10° 57° (ENE) 2,300 6.1 -11.9°
Maximum altitude 05:27:24 15° 93° (E) 1,951 6.4 -11.3°
Drops below altitude 10° 05:30:18 10° 128° (SE) 2,292 6.7 -10.8°
Sets 05:33:34 0° 151° (SSE) 3,212 7.0 -10.1°
